When you browse on this site, cookies collect data to enhance your experience and personalize the content and advertising you see.
Visit our Privacy Policy to learn more. By continuing to use the site, you agree to this use of cookies and data.
  • In Italy
  • List of Countries
  • For 7 days
  • Water Temperature
  • Satellite Maps
  • Weather Map
  • Weather Widgets
  • user-avatar
    Login

    Hourly Weather Parakou

    Today, 17 June, Monday

    Time Temperature Precipitation Wind Pressure Humidity
    00:00 +26°C° 0 mm 2 mps 729 mmHg 89%
    01:00 +25°C° 0.1 mm 2 mps 729 mmHg 91%
    02:00 +25°C° 0.1 mm 2 mps 728 mmHg 93%
    03:00 +25°C° 0.1 mm 2 mps 728 mmHg 95%
    04:00 +25°C° 0 mm 2 mps 728 mmHg 94%
    05:00 +25°C° 0 mm 3 mps 728 mmHg 94%
    06:00 +26°C° 0 mm 3 mps 728 mmHg 93%
    07:00 +27°C° 0 mm 3 mps 729 mmHg 87%
    08:00 +28°C° 0 mm 2 mps 729 mmHg 82%
    09:00 +29°C° 0 mm 2 mps 730 mmHg 77%
    10:00 +31°C° 0 mm 2 mps 729 mmHg 69%
    11:00 +34°C° 0 mm 2 mps 729 mmHg 61%
    12:00 +35°C° 0 mm 2 mps 729 mmHg 53%
    13:00 +36°C° 0 mm 3 mps 728 mmHg 52%
    14:00 +36°C° 0 mm 3 mps 728 mmHg 52%
    15:00 +36°C° 0 mm 3 mps 727 mmHg 51%
    16:00 +34°C° 0 mm 3 mps 727 mmHg 57%
    17:00 +32°C° 0 mm 2 mps 727 mmHg 63%
    18:00 +30°C° 0 mm 2 mps 727 mmHg 69%
    19:00 +29°C° 0 mm 3 mps 728 mmHg 73%
    20:00 +28°C° 0 mm 3 mps 729 mmHg 78%
    21:00 +27°C° 0 mm 3 mps 729 mmHg 82%
    22:00 +27°C° 0 mm 3 mps 729 mmHg 83%
    23:00 +26°C° 0 mm 2 mps 729 mmHg 83%

    Tomorrow, 18 June, Tuesday

    Time Temperature Precipitation Wind Pressure Humidity
    00:00 +26°C° 0 mm 2 mps 729 mmHg 84%
    01:00 +26°C° 0 mm 3 mps 729 mmHg 86%
    02:00 +26°C° 0 mm 3 mps 729 mmHg 88%
    03:00 +26°C° 0 mm 4 mps 728 mmHg 90%
    04:00 +26°C° 0 mm 4 mps 729 mmHg 88%
    05:00 +26°C° 0 mm 4 mps 729 mmHg 86%
    06:00 +26°C° 0 mm 3 mps 729 mmHg 85%
    07:00 +27°C° 0 mm 3 mps 729 mmHg 81%
    08:00 +27°C° 0 mm 3 mps 730 mmHg 77%
    09:00 +28°C° 0 mm 3 mps 730 mmHg 74%
    10:00 +30°C° 0 mm 3 mps 730 mmHg 67%
    11:00 +33°C° 0 mm 3 mps 729 mmHg 60%
    12:00 +35°C° 0 mm 3 mps 729 mmHg 53%
    13:00 +35°C° 0 mm 3 mps 729 mmHg 52%
    14:00 +35°C° 0 mm 3 mps 728 mmHg 51%
    15:00 +36°C° 0 mm 3 mps 728 mmHg 49%
    16:00 +34°C° 0 mm 2 mps 728 mmHg 55%
    17:00 +32°C° 0 mm 2 mps 728 mmHg 62%
    18:00 +30°C° 0 mm 2 mps 728 mmHg 68%
    19:00 +29°C° 0 mm 2 mps 728 mmHg 71%
    20:00 +29°C° 0 mm 2 mps 729 mmHg 74%
    21:00 +28°C° 0 mm 2 mps 730 mmHg 77%
    22:00 +27°C° 0 mm 2 mps 730 mmHg 79%
    23:00 +27°C° 0 mm 2 mps 729 mmHg 80%

    Day after tomorrow, 19 June, Wednesday

    Time Temperature Precipitation Wind Pressure Humidity
    00:00 +26°C° 0 mm 2 mps 729 mmHg 82%
    01:00 +26°C° 0 mm 2 mps 729 mmHg 84%
    02:00 +26°C° 0 mm 3 mps 729 mmHg 87%
    03:00 +25°C° 0 mm 3 mps 729 mmHg 89%
    04:00 +25°C° 0 mm 3 mps 729 mmHg 90%
    05:00 +25°C° 0 mm 2 mps 729 mmHg 90%
    06:00 +24°C° 0 mm 2 mps 729 mmHg 91%
    07:00 +26°C° 0 mm 2 mps 729 mmHg 83%
    08:00 +28°C° 0 mm 3 mps 730 mmHg 75%
    09:00 +30°C° 0 mm 3 mps 730 mmHg 67%
    10:00 +33°C° 0 mm 3 mps 729 mmHg 60%
    11:00 +34°C° 0 mm 3 mps 729 mmHg 54%
    12:00 +36°C° 0 mm 3 mps 729 mmHg 48%
    13:00 +37°C° 0 mm 3 mps 728 mmHg 46%
    14:00 +37°C° 0 mm 2 mps 727 mmHg 43%
    15:00 +38°C° 0 mm 2 mps 727 mmHg 41%
    16:00 +36°C° 0 mm 2 mps 727 mmHg 48%
    17:00 +34°C° 0 mm 2 mps 727 mmHg 55%
    18:00 +32°C° 0 mm 2 mps 727 mmHg 61%
    19:00 +31°C° 0 mm 2 mps 728 mmHg 63%
    20:00 +30°C° 0 mm 3 mps 728 mmHg 65%
    21:00 +29°C° 0 mm 3 mps 729 mmHg 67%
    22:00 +28°C° 0.4 mm 3 mps 729 mmHg 74%
    23:00 +27°C° 0.4 mm 2 mps 729 mmHg 81%

    20 June, Thursday

    Time Temperature Precipitation Wind Pressure Humidity
    00:00 +26°C° 0.4 mm 2 mps 729 mmHg 88%
    01:00 +25°C° 0.3 mm 3 mps 728 mmHg 90%
    02:00 +25°C° 0.3 mm 3 mps 728 mmHg 92%
    03:00 +24°C° 0.3 mm 3 mps 728 mmHg 94%
    04:00 +24°C° 0.2 mm 3 mps 728 mmHg 94%
    05:00 +24°C° 0.2 mm 3 mps 728 mmHg 94%
    06:00 +24°C° 0.2 mm 3 mps 729 mmHg 94%
    07:00 +24°C° 0.9 mm 3 mps 729 mmHg 93%
    08:00 +25°C° 0.9 mm 3 mps 730 mmHg 92%
    09:00 +25°C° 0.9 mm 3 mps 730 mmHg 91%
    10:00 +27°C° 0 mm 3 mps 730 mmHg 83%
    11:00 +29°C° 0 mm 3 mps 730 mmHg 76%
    12:00 +30°C° 0 mm 3 mps 729 mmHg 68%
    13:00 +31°C° 0 mm 3 mps 729 mmHg 65%
    14:00 +33°C° 0 mm 3 mps 728 mmHg 63%
    15:00 +33°C° 0 mm 3 mps 728 mmHg 60%
    16:00 +31°C° 0 mm 2 mps 728 mmHg 65%
    17:00 +30°C° 0 mm 2 mps 728 mmHg 69%
    18:00 +29°C° 0 mm 2 mps 728 mmHg 74%
    19:00 +28°C° 0 mm 2 mps 728 mmHg 76%
    20:00 +28°C° 0 mm 2 mps 729 mmHg 79%
    21:00 +27°C° 0 mm 2 mps 730 mmHg 81%
    22:00 +27°C° 0 mm 2 mps 730 mmHg 83%
    23:00 +26°C° 0 mm 3 mps 730 mmHg 85%

    21 June, Friday

    Time Temperature Precipitation Wind Pressure Humidity
    00:00 +26°C° 0 mm 3 mps 729 mmHg 87%
    01:00 +26°C° 0.2 mm 3 mps 729 mmHg 88%
    02:00 +25°C° 0.2 mm 3 mps 729 mmHg 89%
    03:00 +25°C° 0.2 mm 3 mps 729 mmHg 90%
    04:00 +25°C° 0.1 mm 3 mps 729 mmHg 91%
    05:00 +25°C° 0.1 mm 3 mps 730 mmHg 91%
    06:00 +25°C° 0.1 mm 3 mps 730 mmHg 92%
    07:00 +25°C° 0 mm 4 mps 730 mmHg 88%
    08:00 +26°C° 0 mm 4 mps 730 mmHg 83%
    09:00 +27°C° 0 mm 4 mps 730 mmHg 79%
    10:00 +28°C° 0 mm 3 mps 730 mmHg 77%
    11:00 +28°C° 0 mm 3 mps 730 mmHg 75%
    12:00 +28°C° 0 mm 3 mps 729 mmHg 73%
    13:00 +29°C° 0 mm 2 mps 729 mmHg 70%
    14:00 +30°C° 0 mm 2 mps 728 mmHg 67%
    15:00 +31°C° 0 mm 2 mps 727 mmHg 64%
    16:00 +30°C° 0 mm 2 mps 727 mmHg 68%
    17:00 +29°C° 0 mm 2 mps 727 mmHg 72%
    18:00 +29°C° 0 mm 2 mps 727 mmHg 76%
    19:00 +28°C° 0 mm 2 mps 728 mmHg 79%
    20:00 +27°C° 0 mm 2 mps 728 mmHg 82%
    21:00 +26°C° 0 mm 1 mps 729 mmHg 85%
    22:00 +26°C° 0 mm 1 mps 729 mmHg 87%
    23:00 +26°C° 0 mm 2 mps 729 mmHg 88%

    22 June, Saturday

    Time Temperature Precipitation Wind Pressure Humidity
    00:00 +25°C° 0 mm 2 mps 729 mmHg 89%
    01:00 +25°C° 0 mm 2 mps 729 mmHg 91%
    02:00 +25°C° 0 mm 2 mps 728 mmHg 93%
    03:00 +24°C° 0 mm 2 mps 728 mmHg 94%
    04:00 +25°C° 0 mm 2 mps 728 mmHg 94%
    05:00 +25°C° 0 mm 3 mps 729 mmHg 93%
    06:00 +25°C° 0 mm 3 mps 729 mmHg 92%
    07:00 +25°C° 0.8 mm 3 mps 730 mmHg 89%
    08:00 +26°C° 0.8 mm 3 mps 730 mmHg 87%
    09:00 +27°C° 0.8 mm 3 mps 731 mmHg 84%
    10:00 +29°C° 0.1 mm 3 mps 730 mmHg 74%
    11:00 +31°C° 0.1 mm 3 mps 729 mmHg 64%
    12:00 +34°C° 0.1 mm 2 mps 728 mmHg 54%
    13:00 +35°C° 0 mm 2 mps 728 mmHg 50%
    14:00 +35°C° 0 mm 1 mps 727 mmHg 46%
    15:00 +36°C° 0 mm 1 mps 727 mmHg 42%
    16:00 +34°C° 0 mm 1 mps 727 mmHg 49%
    17:00 +32°C° 0 mm 2 mps 727 mmHg 56%
    18:00 +30°C° 0 mm 2 mps 727 mmHg 63%
    19:00 +29°C° 0 mm 2 mps 727 mmHg 69%
    20:00 +28°C° 0 mm 2 mps 727 mmHg 75%
    21:00 +27°C° 0 mm 2 mps 728 mmHg 81%
    22:00 +26°C° 0 mm 3 mps 728 mmHg 84%
    23:00 +26°C° 0 mm 3 mps 728 mmHg 86%
    Show more